This is the latest recevied weather packets stored in our database for station/object HP1COO-13. If no packets are shown the sender has not sent any weather packets the latest 10 day(s).
| Time | Temp. | Humidity | Pressure | Rain* | Wind** | Luminosity | Snow |
|---|---|---|---|---|---|---|---|
| 1777902392 | 28.89° C | 79% | 1009.6 hPa | 0 mm | - | - | - |
| 1777901759 | 28.89° C | 79% | 1009.5 hPa | 0 mm | - | - | - |
| 1777901126 | 28.33° C | 80% | 1009.7 hPa | 0 mm | - | - | - |
| 1777899860 | 27.78° C | 82% | 1009.7 hPa | 0 mm | - | - | - |
| 1777899227 | 28.33° C | 81% | 1009.2 hPa | 0 mm | - | - | - |
| 1777898594 | 27.78° C | 83% | 1009.2 hPa | 0 mm | - | - | - |
| 1777897961 | 26.67° C | 86% | 1008.9 hPa | 0 mm | - | - | - |
| 1777897328 | 26.67° C | 88% | 1009 hPa | 0 mm | - | - | - |
| 1777896695 | 26.67° C | 89% | 1009.2 hPa | 0 mm | - | - | - |
| 1777896062 | 25.56° C | 92% | 1008.9 hPa | 0 mm | - | - | - |
| 1777894796 | 25° C | 94% | 1008.9 hPa | 0 mm | - | - | - |
| 1777894163 | 25° C | 95% | 1009 hPa | 0 mm | - | - | - |
| 1777893530 | 25° C | 95% | 1008.5 hPa | 0 mm | - | - | - |
| 1777892897 | 25° C | 96% | 1008.4 hPa | 0 mm | - | - | - |
| 1777892264 | 24.44° C | 96% | 1008.3 hPa | 0 mm | - | - | - |
| 1777891631 | 25° C | 95% | 1008.1 hPa | 0 mm | - | - | - |
| 1777890998 | 25° C | 94% | 1008.1 hPa | 0 mm | - | - | - |
| 1777890365 | 25° C | 94% | 1008.1 hPa | 0 mm | - | - | - |
| 1777889732 | 25° C | 94% | 1008 hPa | 0 mm | - | - | - |
| 1777889099 | 25° C | 94% | 1008.1 hPa | 0 mm | - | - | - |
| 1777888466 | 25° C | 94% | 1007.9 hPa | 0 mm | - | - | - |
| 1777887833 | 25° C | 94% | 1007.8 hPa | 0 mm | - | - | - |
| 1777887200 | 25° C | 94% | 1007.9 hPa | 0 mm | - | - | - |
| 1777886567 | 25° C | 94% | 1007.8 hPa | 0 mm | - | - | - |
| 1777885934 | 25° C | 94% | 1007.6 hPa | 0 mm | - | - | - |
* Rain latest hour (hover to see other rain measurements)
** Current wind speed in m/s (hover to see current wind gust speed)